Location: Poughquag
(41.6090°N, 73.6820°W)
Time: 21:22:43
(UTC-05:00)

N. Korean satellite - Pass Details

Date: 28 January 2021
Orbit: 451 x 503 km, 97.2° (Epoch: 24 February)

Event Time Altitude Azimuth Distance (km) Brightness Sun altitude
Rises 06:14:23 0° 355° (N) 2,493 10.0 -10.7°
Reaches altitude 10° 06:16:51 10° 337° (NNW) 1,605 8.8 -10.2°
Maximum altitude 06:19:18 19° 291° (WNW) 1,164 7.8 -9.8°
Drops below altitude 10° 06:21:44 10° 246° (WSW) 1,585 8.7 -9.4°
Sets 06:24:10 0° 227° (SW) 2,449 9.8 -8.9°
